• In Germany
  • List of Countries
  • For 7 days
  • Water Temperature
  • Satellite Maps
  • Weather Map
  • Weather Widgets
  • user-avatar
    Login

    Hourly Weather Adelaide

    Today, 23 July, Sunday

    Time Temperature Precipitation Wind Pressure Humidity
    00:00 +14°C° 0 mm 5 mps 757 mmHg 83%
    01:00 +13°C° 0 mm 5 mps 757 mmHg 83%
    02:00 +13°C° 0 mm 5 mps 757 mmHg 83%
    03:00 +13°C° 0 mm 5 mps 758 mmHg 82%
    04:00 +13°C° 0 mm 5 mps 758 mmHg 81%
    05:00 +13°C° 0 mm 5 mps 758 mmHg 80%
    06:00 +13°C° 0 mm 5 mps 758 mmHg 78%
    07:00 +14°C° 0 mm 6 mps 758 mmHg 75%
    08:00 +14°C° 0 mm 6 mps 759 mmHg 71%
    09:00 +15°C° 0 mm 7 mps 759 mmHg 68%
    10:00 +16°C° 0.1 mm 7 mps 759 mmHg 66%
    11:00 +16°C° 0.1 mm 7 mps 759 mmHg 64%
    12:00 +16°C° 0.1 mm 7 mps 759 mmHg 63%
    13:00 +16°C° 0.2 mm 7 mps 759 mmHg 63%
    14:00 +16°C° 0.2 mm 7 mps 759 mmHg 63%
    15:00 +16°C° 0.2 mm 7 mps 759 mmHg 63%
    16:00 +15°C° 0 mm 6 mps 759 mmHg 68%
    17:00 +14°C° 0 mm 5 mps 759 mmHg 73%
    18:00 +13°C° 0 mm 5 mps 760 mmHg 77%
    19:00 +13°C° 0 mm 4 mps 760 mmHg 79%
    20:00 +12°C° 0 mm 4 mps 761 mmHg 81%
    21:00 +12°C° 0 mm 4 mps 761 mmHg 82%
    22:00 +12°C° 0 mm 3 mps 761 mmHg 83%
    23:00 +11°C° 0 mm 3 mps 761 mmHg 84%

    Tomorrow, 24 July, Monday

    Time Temperature Precipitation Wind Pressure Humidity
    00:00 +11°C° 0 mm 3 mps 761 mmHg 85%
    01:00 +11°C° 0 mm 3 mps 761 mmHg 86%
    02:00 +11°C° 0 mm 3 mps 761 mmHg 87%
    03:00 +11°C° 0 mm 3 mps 761 mmHg 88%
    04:00 +11°C° 0 mm 3 mps 761 mmHg 89%
    05:00 +11°C° 0 mm 3 mps 761 mmHg 90%
    06:00 +10°C° 0 mm 3 mps 762 mmHg 91%
    07:00 +11°C° 0 mm 4 mps 762 mmHg 88%
    08:00 +12°C° 0 mm 4 mps 762 mmHg 86%
    09:00 +13°C° 0 mm 5 mps 763 mmHg 83%
    10:00 +14°C° 0 mm 5 mps 762 mmHg 77%
    11:00 +15°C° 0 mm 5 mps 762 mmHg 71%
    12:00 +16°C° 0 mm 5 mps 761 mmHg 64%
    13:00 +18°C° 0 mm 4 mps 761 mmHg 62%
    14:00 +18°C° 0 mm 4 mps 761 mmHg 60%
    15:00 +18°C° 0 mm 4 mps 760 mmHg 58%
    16:00 +17°C° 0 mm 3 mps 760 mmHg 64%
    17:00 +16°C° 0 mm 2 mps 760 mmHg 69%
    18:00 +14°C° 0 mm 2 mps 760 mmHg 75%
    19:00 +14°C° 0 mm 2 mps 761 mmHg 73%
    20:00 +13°C° 0 mm 3 mps 761 mmHg 72%
    21:00 +13°C° 0 mm 4 mps 761 mmHg 70%
    22:00 +14°C° 0 mm 4 mps 760 mmHg 66%
    23:00 +14°C° 0 mm 5 mps 760 mmHg 61%

    Day after tomorrow, 25 July, Tuesday

    Time Temperature Precipitation Wind Pressure Humidity
    00:00 +14°C° 0 mm 5 mps 760 mmHg 56%
    01:00 +14°C° 0 mm 6 mps 759 mmHg 56%
    02:00 +14°C° 0 mm 6 mps 759 mmHg 55%
    03:00 +14°C° 0 mm 6 mps 759 mmHg 54%
    04:00 +14°C° 0 mm 6 mps 759 mmHg 56%
    05:00 +14°C° 0 mm 6 mps 759 mmHg 59%
    06:00 +14°C° 0 mm 6 mps 759 mmHg 62%
    07:00 +14°C° 0 mm 6 mps 759 mmHg 63%
    08:00 +15°C° 0 mm 6 mps 760 mmHg 63%
    09:00 +16°C° 0 mm 6 mps 760 mmHg 64%
    10:00 +17°C° 0 mm 6 mps 760 mmHg 63%
    11:00 +17°C° 0 mm 6 mps 759 mmHg 61%
    12:00 +19°C° 0 mm 6 mps 759 mmHg 60%
    13:00 +19°C° 0 mm 6 mps 759 mmHg 62%
    14:00 +19°C° 0 mm 6 mps 758 mmHg 63%
    15:00 +19°C° 0 mm 6 mps 758 mmHg 65%
    16:00 +16°C° 0.1 mm 6 mps 758 mmHg 70%
    17:00 +15°C° 0.1 mm 5 mps 759 mmHg 76%
    18:00 +14°C° 0.1 mm 5 mps 759 mmHg 82%
    19:00 +14°C° 0.1 mm 5 mps 759 mmHg 81%
    20:00 +14°C° 0.1 mm 5 mps 760 mmHg 80%
    21:00 +14°C° 0.1 mm 5 mps 760 mmHg 80%
    22:00 +13°C° 0.1 mm 5 mps 760 mmHg 81%
    23:00 +13°C° 0.1 mm 5 mps 760 mmHg 83%

    26 July, Wednesday

    Time Temperature Precipitation Wind Pressure Humidity
    00:00 +12°C° 0.1 mm 5 mps 760 mmHg 85%
    01:00 +12°C° 0.1 mm 5 mps 760 mmHg 85%
    02:00 +12°C° 0.1 mm 5 mps 760 mmHg 85%
    03:00 +12°C° 0.1 mm 5 mps 760 mmHg 85%
    04:00 +12°C° 0 mm 5 mps 761 mmHg 84%
    05:00 +12°C° 0 mm 5 mps 761 mmHg 83%
    06:00 +12°C° 0 mm 5 mps 761 mmHg 83%
    07:00 +13°C° 0 mm 5 mps 762 mmHg 78%
    08:00 +13°C° 0 mm 5 mps 762 mmHg 74%
    09:00 +14°C° 0 mm 6 mps 763 mmHg 69%
    10:00 +15°C° 0 mm 6 mps 763 mmHg 65%
    11:00 +15°C° 0 mm 5 mps 763 mmHg 62%
    12:00 +16°C° 0 mm 5 mps 763 mmHg 58%
    13:00 +16°C° 0 mm 5 mps 762 mmHg 57%
    14:00 +16°C° 0 mm 5 mps 762 mmHg 57%
    15:00 +15°C° 0 mm 4 mps 762 mmHg 56%
    16:00 +14°C° 0 mm 4 mps 762 mmHg 61%
    17:00 +13°C° 0 mm 3 mps 763 mmHg 66%
    18:00 +13°C° 0 mm 2 mps 763 mmHg 70%
    19:00 +12°C° 0 mm 2 mps 764 mmHg 73%
    20:00 +12°C° 0 mm 1 mps 764 mmHg 76%
    21:00 +11°C° 0 mm 1 mps 764 mmHg 78%
    22:00 +11°C° 0 mm 1 mps 764 mmHg 80%
    23:00 +11°C° 0 mm 1 mps 764 mmHg 81%

    27 July, Thursday

    Time Temperature Precipitation Wind Pressure Humidity
    00:00 +10°C° 0 mm 1 mps 763 mmHg 82%
    01:00 +9°C° 0 mm 2 mps 763 mmHg 83%
    02:00 +9°C° 0 mm 2 mps 763 mmHg 84%
    03:00 +9°C° 0 mm 3 mps 763 mmHg 84%
    04:00 +9°C° 0 mm 3 mps 763 mmHg 83%
    05:00 +8°C° 0 mm 4 mps 762 mmHg 82%
    06:00 +8°C° 0 mm 4 mps 762 mmHg 80%
    07:00 +9°C° 0 mm 5 mps 762 mmHg 76%
    08:00 +10°C° 0 mm 5 mps 762 mmHg 72%
    09:00 +13°C° 0 mm 6 mps 762 mmHg 67%
    10:00 +14°C° 0.1 mm 6 mps 762 mmHg 65%
    11:00 +15°C° 0.1 mm 6 mps 761 mmHg 63%
    12:00 +16°C° 0.1 mm 6 mps 760 mmHg 60%
    13:00 +16°C° 0.1 mm 5 mps 759 mmHg 62%
    14:00 +16°C° 0.1 mm 5 mps 759 mmHg 65%
    15:00 +18°C° 0.1 mm 4 mps 758 mmHg 67%
    16:00 +17°C° 0 mm 3 mps 758 mmHg 70%
    17:00 +16°C° 0 mm 2 mps 758 mmHg 72%
    18:00 +15°C° 0 mm 1 mps 758 mmHg 75%
    19:00 +15°C° 0 mm 1 mps 758 mmHg 75%
    20:00 +15°C° 0 mm 1 mps 759 mmHg 76%
    21:00 +15°C° 0 mm 2 mps 759 mmHg 76%
    22:00 +15°C° 0 mm 2 mps 759 mmHg 78%
    23:00 +14°C° 0 mm 2 mps 759 mmHg 81%

    28 July, Friday

    Time Temperature Precipitation Wind Pressure Humidity
    00:00 +13°C° 0 mm 3 mps 759 mmHg 84%
    01:00 +14°C° 0 mm 2 mps 759 mmHg 86%
    02:00 +13°C° 0 mm 2 mps 759 mmHg 89%
    03:00 +13°C° 0 mm 2 mps 759 mmHg 91%
    04:00 +13°C° 0 mm 2 mps 759 mmHg 92%
    05:00 +12°C° 0 mm 1 mps 760 mmHg 92%
    06:00 +12°C° 0 mm 1 mps 760 mmHg 93%
    07:00 +13°C° 0 mm 2 mps 760 mmHg 90%
    08:00 +14°C° 0 mm 2 mps 760 mmHg 87%
    09:00 +14°C° 0 mm 3 mps 760 mmHg 83%
    10:00 +17°C° 0 mm 4 mps 759 mmHg 75%
    11:00 +18°C° 0 mm 4 mps 759 mmHg 66%
    12:00 +20°C° 0 mm 4 mps 758 mmHg 58%
    13:00 +20°C° 0 mm 4 mps 757 mmHg 57%
    14:00 +20°C° 0 mm 4 mps 757 mmHg 56%
    15:00 +20°C° 0 mm 4 mps 756 mmHg 55%
    16:00 +19°C° 0 mm 4 mps 756 mmHg 58%
    17:00 +18°C° 0 mm 4 mps 756 mmHg 62%
    18:00 +17°C° 0 mm 4 mps 756 mmHg 65%
    19:00 +17°C° 0 mm 4 mps 756 mmHg 61%
    20:00 +17°C° 0 mm 4 mps 755 mmHg 57%
    21:00 +16°C° 0 mm 5 mps 755 mmHg 53%
    22:00 +16°C° 0 mm 5 mps 755 mmHg 51%
    23:00 +17°C° 0 mm 5 mps 754 mmHg 49%
    Show more